LiveATC.Net - Listen to live air traffic control over the Internet!


ICAO: KRST  IATA: RST   Airport: Rochester International Airport
City: Rochester   State/Province: Minnesota
Country: United States   Continent: North America
KRST METAR Weather: KRST 210854Z AUTO 31008KT 3SM BR OVC003 10/09 A2979 RMK AO2 SLP090 T01000094 53004
KRST Flight Activity (FlightAware)
KRST Airport Info   (iFlightPlanner)
KRST VFR Sectional Chart   (iFlightPlanner) 
KRST IFR Low Chart   (iFlightPlanner) 

KRST Gnd/Twr/App
Feed Status: UP   Listeners: 0
Listen in your browser - HTML5 player (in browser, HTML5)
Click here to listen with your own player (launches your MP3 player)
Archive Access: KRST Gnd/Twr/App
FacilityFrequency
Rochester Approach119.200
Rochester Approach119.800
Rochester Ground121.900
Rochester Tower118.300

NOTICE

Unauthorized use prohibited. See LiveATC.net Terms of Service


Airport/ARTCC Code
Frequency Search
(e.g., 124.400, 128.75)
Site-wide search
 


Browse Feeds
Top 50 Feeds
HF Oceanic Feeds
Coverage Map
Bad Weather Areas

LiveATC FAQ
Offer LiveATC feed
Contact LiveATC.net
Press Inquiries

LiveATC on iPhone
LiveATC on Android

Windows Phone
Windows 8/10

LiveATC Mobile
(Mobile browser)

ATC Audio Archives
Interesting Recordings

LiveATC Forums


Home Page
About LiveATC.net
Make a Donation
Terms of Use
Privacy Policy

Canadian Air Freqs

AIRMETs/SIGMETs

FAA Airport Status
NAS Status
Arrival Demand


Server Software By:
Icecast.org
Liquidsoap